Find Starlink 38099

NORAD ID: 69987 Int'l Des: 2026-159 Owner: SPXS Country: US Constellation: starlink operational
LEOCIRCULARRETROGRADE

当前视图

正在加载3D地球...

About Starlink 38099

Starlink 38099 (NORAD 69987) is a starlink constellation satellite (v2 mini) launched Jul 11, 2026 by SPXS of US. It operates in LEO, CIRCULAR, RETROGRADE orbit with a mass of 575.00 kg.

即将过境

Passes for default location (London). Set your location on the main map for personalized predictions.

高度历史

Loading altitude history...

两行轨道根数

1 69987U 26159N 26237.07251064 .00157873 00000-0 10427-2 0 9994
2 69987 97.2837 77.8425 0001245 100.8515 259.2890 15.75127860 8300
Epoch: Aug 25, 2026 • Age: 27 hours

当前状态

高度 364.0 km
远地点 / 近地点 N/A
速度 7.69 km/s
星下点 -51.36°S, 39.28°E
发射日期 Jul 11, 2026
运行时间 0.1 years
类型 internet

技术详情

分类 Payload
质量 575.00 kg
干质量 530.00 kg
总质量 575.00 kg
长度 0.30 m
直径 4.10 m
跨度 29.00 m
形状 Box + pan
制造商 SPXS
平台类型 Starlink V2MO
阶段状态 In Orbit
所有者/国家 SPXS/US

Most Searched